| time (UTC) | temp C | wind direction | speed KPH | gust KPH | rain 1hr cm | rain 24hr cm | rain mn cm | humidity % | barometer mb |
| 20260502163006 | 16 | 36 | 3.2 | 6.4 | 0.00 | 0.00 | 0.00 | 100 | 1013.3 |
| 20260502161506 | 16 | 44 | 1.6 | 4.8 | 0.00 | 0.00 | 0.00 | 100 | 1013.5 |
| 20260502151506 | 16 | 98 | 3.2 | 9.7 | 0.00 | 0.00 | 0.00 | 100 | 1014.1 |
| 20260502123005 | 17 | 360 | 3.2 | 14.5 | 0.00 | 0.00 | 0.00 | 100 | 1016.0 |
| 20260502121505 | 16 | 185 | 4.8 | 8.0 | 0.00 | 0.00 | 0.00 | 100 | 1016.3 |
| 20260502114505 | 16 | 225 | 4.8 | 11.3 | 0.00 | 0.00 | 0.00 | 100 | 1016.4 |
| 20260502113006 | 15 | 158 | 6.4 | 9.7 | 0.00 | 0.00 | 0.00 | 100 | 1016.7 |
| 20260502110010 | 15 | 276 | 6.4 | 14.5 | 0.00 | 0.00 | 0.00 | 100 | 1017.4 |
| 20260502104505 | 15 | 281 | 6.4 | 12.9 | 0.00 | 0.00 | 0.00 | 100 | 1017.5 |
| 20260502103006 | 15 | 292 | 8.0 | 16.1 | 0.00 | 0.00 | 0.00 | 100 | 1017.4 |
| 20260502101505 | 14 | 253 | 4.8 | 12.9 | 0.00 | 0.00 | 0.00 | 100 | 1017.5 |
| 20260502071505 | 9 | 290 | 4.8 | 12.9 | 0.00 | 0.00 | 0.00 | 100 | 1018.4 |
| 20260502070008 | 8 | 360 | 3.2 | 9.7 | 0.00 | 0.00 | 0.00 | 100 | 1018.5 |
| 20260502063005 | 8 | 360 | 3.2 | 8.0 | 0.00 | 0.00 | 0.00 | 100 | 1018.4 |
| 20260502060009 | 8 | 360 | 3.2 | 8.0 | 0.00 | 0.00 | 0.00 | 100 | 1018.2 |
| 20260502054505 | 8 | 360 | 1.6 | 6.4 | 0.00 | 0.00 | 0.00 | 100 | 1018.1 |
| 20260502053005 | 7 | 360 | 1.6 | 6.4 | 0.00 | 0.00 | 0.00 | 100 | 1018.1 |
| 20260502051506 | 7 | 360 | 3.2 | 6.4 | 0.00 | 0.00 | 0.00 | 100 | 1018.1 |
| 20260502050012 | 7 | 360 | 3.2 | 8.0 | 0.00 | 0.00 | 0.00 | 100 | 1018.3 |
| 20260502044505 | 6 | 360 | 1.6 | 4.8 | 0.00 | 0.00 | 0.00 | 100 | 1018.2 |
| 20260502041505 | 7 | 360 | 0.0 | 0.0 | 0.00 | 0.00 | 0.00 | 100 | 1018.3 |
| 20260502040008 | 7 | 360 | 0.0 | 0.0 | 0.00 | 0.00 | 0.00 | 100 | 1018.4 |
| 20260502034505 | 7 | 360 | 0.0 | 0.0 | 0.00 | 0.00 | 0.00 | 100 | 1018.4 |
| 20260502033005 | 7 | 360 | 0.0 | 0.0 | 0.00 | 0.00 | 0.00 | 100 | 1018.5 |
| 20260502031505 | 7 | 360 | 0.0 | 3.2 | 0.00 | 0.00 | 0.00 | 100 | 1018.6 |
| 20260502030008 | 8 | 360 | 1.6 | 4.8 | 0.00 | 0.00 | 0.00 | 100 | 1018.6 |
| 20260502024505 | 8 | 360 | 3.2 | 4.8 | 0.00 | 0.00 | 0.00 | 100 | 1018.6 |
| 20260502021505 | 8 | 360 | 3.2 | 9.7 | 0.00 | 0.00 | 0.00 | 100 | 1018.8 |
| 20260502014505 | 9 | 360 | 3.2 | 6.4 | 0.00 | 0.00 | 0.00 | 100 | 1019.0 |
| 20260502011505 | 10 | 360 | 4.8 | 9.7 | 0.00 | 0.00 | 0.00 | 100 | 1019.4 |
| 20260502010008 | 10 | 360 | 3.2 | 6.4 | 0.00 | 0.00 | 0.00 | 100 | 1019.4 |
| 20260502004505 | 10 | 360 | 3.2 | 8.0 | 0.00 | 0.00 | 0.00 | 100 | 1019.5 |
| 20260502003005 | 10 | 360 | 4.8 | 9.7 | 0.00 | 0.00 | 0.00 | 100 | 1019.6 |
| 20260502000007 | 10 | 360 | 4.8 | 9.7 | 0.00 | 0.00 | 0.00 | 100 | 1019.7 |
| 20260501233006 | 11 | 360 | 4.8 | 9.7 | 0.00 | 0.00 | 0.00 | 100 | 1019.8 |
| 20260501231506 | 11 | 360 | 4.8 | 9.7 | 0.00 | 0.00 | 0.00 | 100 | 1019.9 |
| 20260501230011 | 11 | 360 | 4.8 | 9.7 | 0.00 | 0.00 | 0.00 | 100 | 1019.9 |
| 20260501223006 | 12 | 360 | 6.4 | 14.5 | 0.00 | 0.00 | 0.00 | 100 | 1019.8 |
| 20260501221506 | 12 | 360 | 6.4 | 12.9 | 0.00 | 0.00 | 0.00 | 100 | 1019.7 |
| 20260501220010 | 12 | 360 | 4.8 | 9.7 | 0.00 | 0.00 | 0.00 | 100 | 1019.7 |
| 20260501213006 | 12 | 360 | 6.4 | 12.9 | 0.00 | 0.00 | 0.00 | 100 | 1019.8 |
| 20260501211506 | 12 | 360 | 6.4 | 14.5 | 0.00 | 0.00 | 0.00 | 100 | 1019.8 |
| 20260501210009 | 12 | 360 | 6.4 | 12.9 | 0.00 | 0.00 | 0.00 | 100 | 1019.8 |
| 20260501204506 | 12 | 360 | 4.8 | 14.5 | 0.00 | 0.00 | 0.00 | 100 | 1019.9 |
| 20260501203006 | 12 | 360 | 6.4 | 14.5 | 0.00 | 0.00 | 0.00 | 100 | 1019.8 |
| 20260501201506 | 12 | 360 | 4.8 | 8.0 | 0.00 | 0.00 | 0.00 | 100 | 1019.9 |
| 20260501200009 | 12 | 360 | 4.8 | 14.5 | 0.00 | 0.00 | 0.00 | 100 | 1019.9 |
| 20260501194506 | 12 | 360 | 6.4 | 14.5 | 0.00 | 0.00 | 0.00 | 100 | 1019.8 |
| 20260501193006 | 12 | 360 | 6.4 | 14.5 | 0.00 | 0.00 | 0.00 | 100 | 1019.9 |
| 20260501191506 | 12 | 360 | 4.8 | 14.5 | 0.00 | 0.00 | 0.00 | 100 | 1019.9 |
| 20260501190009 | 13 | 360 | 8.0 | 14.5 | 0.00 | 0.00 | 0.00 | 100 | 1019.8 |
| 20260501184506 | 13 | 360 | 9.7 | 17.7 | 0.00 | 0.00 | 0.00 | 100 | 1019.7 |
| 20260501183006 | 13 | 360 | 9.7 | 16.1 | 0.00 | 0.00 | 0.00 | 100 | 1019.6 |
| 20260501174506 | 15 | 360 | 12.9 | 19.3 | 0.00 | 0.00 | 0.00 | 100 | 1019.4 |
| 20260501173006 | 16 | 360 | 9.7 | 19.3 | 0.00 | 0.00 | 0.00 | 100 | 1019.2 |